WI1SKY Weather Reports


Display with metric or nautical units.
time (UTC)temp
F
wind
direction
speed
MPH
gust
MPH
rain 1hr
in
rain 24hr
in
rain mn
in
humidity
%
barometer
mb
20260906033704 71 74 2.0 3.0 0.00 0.00 0.00 90 1017.1
20260906033205 71 74 2.0 4.0 0.00 0.00 0.00 90 1017.0
20260906032704 71 74 2.0 4.0 0.00 0.00 0.00 89 1016.9
20260906032203 71 74 2.0 5.0 0.00 0.00 0.00 89 1016.9
20260906031703 71 76 2.0 5.0 0.00 0.00 0.00 89 1016.8
20260906031203 71 86 2.0 3.0 0.00 0.00 0.00 89 1016.8
20260906030703 71 86 2.0 4.0 0.00 0.00 0.00 89 1016.7
20260906030513 71 86 2.0 4.0 0.00 0.00 0.00 89 1016.6
20260906030014 71 92 1.0 4.0 0.00 0.00 0.00 89 1016.5
20260906025204 71 92 1.0 3.0 0.00 0.00 0.00 89 1016.4
20260906024702 71 96 1.0 4.0 0.00 0.00 0.00 89 1016.3
20260906024203 71 96 2.0 4.0 0.00 0.00 0.00 89 1016.3
20260906023702 71 84 2.0 3.0 0.00 0.00 0.00 89 1016.2
20260906023202 72 94 2.0 3.0 0.00 0.00 0.00 88 1016.3
20260906022701 72 101 1.0 2.0 0.00 0.00 0.00 88 1016.3
20260906022202 72 101 1.0 3.0 0.00 0.00 0.00 88 1016.2
20260906021702 72 101 2.0 3.0 0.00 0.00 0.00 87 1016.2
20260906021202 72 101 1.0 3.0 0.00 0.00 0.00 87 1016.1
20260906020702 73 101 1.0 3.0 0.00 0.00 0.00 86 1016.0
20260906020202 73 101 2.0 4.0 0.00 0.00 0.00 86 1016.0
20260906015703 73 101 1.0 4.0 0.00 0.00 0.00 85 1015.9
20260906015202 73 69 1.0 4.0 0.00 0.00 0.00 85 1015.8
20260906014702 73 69 2.0 7.0 0.00 0.00 0.00 85 1015.6
20260906014202 73 99 2.0 7.0 0.00 0.00 0.00 85 1015.4
20260906013703 73 93 2.0 4.0 0.00 0.00 0.00 85 1015.4
20260906013203 74 92 2.0 4.0 0.00 0.00 0.00 84 1015.4
20260906012702 74 92 2.0 4.0 0.00 0.00 0.00 84 1015.2
20260906012203 74 82 2.0 8.0 0.00 0.00 0.00 84 1015.0
20260906011702 74 104 2.0 8.0 0.00 0.00 0.00 83 1015.0
20260906011202 74 91 1.0 4.0 0.00 0.00 0.00 83 1014.9
20260906010702 74 98 2.0 4.0 0.00 0.00 0.00 83 1014.9
20260906010512 74 103 2.0 4.0 0.00 0.00 0.00 82 1014.7
20260906005705 74 107 1.0 4.0 0.00 0.00 0.00 82 1014.7
20260906005204 74 63 1.0 3.0 0.00 0.00 0.00 82 1014.7
20260906004812 75 63 1.0 3.0 0.00 0.00 0.00 82 1014.6
20260906004748 75 63 1.0 3.0 0.00 0.00 0.00 82 1014.6
20260906003702 75 77 1.0 3.0 0.00 0.00 0.00 82 1014.6
20260906003507 75 78 1.0 3.0 0.00 0.00 0.00 82 1014.6
20260906002703 75 78 1.0 3.0 0.00 0.00 0.00 82 1014.5
20260906002203 75 64 1.0 3.0 0.00 0.00 0.00 82 1014.5
20260906001700 75 69 1.0 4.0 0.00 0.00 0.00 83 1014.5
20260906001512 75 69 1.0 4.0 0.00 0.00 0.00 83 1014.5
20260906001015 75 69 1.0 3.0 0.00 0.00 0.00 84 1014.5
20260906000159 76 31 0.0 3.0 0.00 0.00 0.00 84 1014.7
20260905235656 76 30 0.0 0.0 0.00 0.00 0.00 83 1014.7
20260905235156 76 17 0.0 0.0 0.00 0.00 0.00 83 1014.7
20260905234657 76 17 0.0 0.0 0.00 0.00 0.00 83 1014.7
20260905234506 76 17 0.0 2.0 0.00 0.00 0.00 82 1014.7
20260905234109 76 17 1.0 3.0 0.00 0.00 0.00 82 1014.8
20260905234055 76 17 1.0 3.0 0.00 0.00 0.00 82 1014.7
20260905232650 76 341 0.0 0.0 0.00 0.00 0.00 83 1014.8
20260905232149 76 341 0.0 0.0 0.00 0.00 0.00 82 1015.0
20260905231650 77 341 0.0 0.0 0.00 0.00 0.00 82 1015.0
20260905231151 77 341 0.0 0.0 0.00 0.00 0.00 82 1015.1
20260905230953 77 341 0.0 0.0 0.00 0.00 0.00 81 1015.1
20260905230146 77 341 0.0 0.0 0.00 0.00 0.00 81 1015.1
20260905225645 77 341 0.0 0.0 0.00 0.00 0.00 81 1015.1
20260905225143 78 341 0.0 0.0 0.00 0.00 0.00 82 1015.1
20260905224944 78 341 0.0 0.0 0.00 0.00 0.00 82 1015.1
20260905224139 78 341 0.0 0.0 0.00 0.00 0.00 82 1015.0
20260905223640 78 341 0.0 0.0 0.00 0.00 0.00 80 1015.1
20260905223443 78 341 0.0 0.0 0.00 0.00 0.00 80 1015.2
20260905222944 78 341 0.0 0.0 0.00 0.00 0.00 79 1015.2
20260905222141 78 341 0.0 0.0 0.00 0.00 0.00 79 1015.1
20260905221639 78 341 0.0 0.0 0.00 0.00 0.00 79 1015.2
20260905221144 78 341 0.0 0.0 0.00 0.00 0.00 78 1015.1
20260905220639 79 341 0.0 0.0 0.00 0.00 0.00 77 1015.2
20260905220136 79 341 0.0 0.0 0.00 0.00 0.00 75 1015.2
20260905215638 79 341 0.0 0.0 0.00 0.00 0.00 76 1015.2
20260905215137 79 341 0.0 2.0 0.00 0.00 0.00 75 1015.2
20260905214635 79 341 1.0 2.0 0.00 0.00 0.00 76 1015.3
20260905214134 79 341 1.0 2.0 0.00 0.00 0.00 77 1015.4
20260905213633 79 341 1.0 2.0 0.00 0.00 0.00 78 1015.5
20260905213131 79 341 2.0 3.0 0.00 0.00 0.00 77 1015.5
20260905212631 79 341 2.0 3.0 0.00 0.00 0.00 78 1015.6
20260905212130 78 22 1.0 3.0 0.00 0.00 0.00 78 1015.7
20260905211631 78 35 1.0 4.0 0.00 0.00 0.00 78 1015.7
20260905211131 78 0 1.0 4.0 0.00 0.00 0.00 78 1015.6
20260905210631 78 37 0.0 2.0 0.00 0.00 0.00 78 1015.5
20260905210130 78 36 0.0 0.0 0.00 0.00 0.00 78 1015.5
20260905205630 78 36 0.0 3.0 0.00 0.00 0.00 80 1015.5
20260905205436 78 36 1.0 3.0 0.00 0.00 0.00 79 1015.6
20260905204631 77 36 1.0 3.0 0.00 0.00 0.00 81 1015.8
20260905204130 77 37 0.0 3.0 0.00 0.00 0.00 82 1015.8
20260905203634 77 85 0.0 0.0 0.00 0.00 0.00 82 1015.9
20260905203127 77 85 0.0 0.0 0.00 0.00 0.00 81 1015.9
20260905202622 77 85 0.0 4.0 0.00 0.00 0.00 83 1015.8
20260905202117 77 85 0.0 4.0 0.00 0.00 0.00 81 1015.8
20260905201617 76 85 1.0 4.0 0.00 0.00 0.00 82 1015.8
20260905201118 76 85 2.0 4.0 0.00 0.00 0.00 82 1015.6
20260905200622 76 92 2.0 4.0 0.00 0.00 0.00 82 1015.7
20260905200117 76 100 1.0 6.0 0.00 0.00 0.00 82 1015.8
20260905195618 77 101 0.0 6.0 0.00 0.00 0.00 82 1015.9
20260905195116 77 5 0.0 0.0 0.00 0.00 0.00 81 1015.9
20260905194616 77 5 0.0 0.0 0.00 0.00 0.00 82 1016.0
20260905194116 76 5 0.0 0.0 0.00 0.00 0.00 82 1016.0
20260905193615 76 5 0.0 0.0 0.00 0.00 0.00 83 1016.0
20260905193112 76 5 0.0 0.0 0.00 0.00 0.00 82 1016.0
20260905192734 76 38 0.0 3.0 0.00 0.00 0.00 83 1016.2
20260905192704 76 0 0.0 0.0 0.00 0.00 0.00 83 1016.1
20260905191609 76 38 1.0 3.0 0.00 0.00 0.00 83 1016.1
20260905191109 76 38 2.0 4.0 0.00 0.00 0.00 84 1016.0
20260905190610 76 68 2.0 5.0 0.00 0.00 0.00 84 1015.9
20260905190109 76 75 2.0 5.0 0.00 0.00 0.00 84 1015.9
20260905185608 76 63 2.0 5.0 0.00 0.00 0.00 85 1016.0
20260905185108 76 62 3.0 6.0 0.00 0.00 0.00 85 1016.0
20260905184607 76 28 3.0 6.0 0.00 0.00 0.00 86 1016.0
20260905184411 76 129 3.0 7.0 0.00 0.00 0.00 86 1015.9
20260905183904 76 50 4.0 9.0 0.00 0.00 0.00 86 1016.0
20260905183105 75 76 4.0 9.0 0.00 0.00 0.00 85 1016.1
20260905182607 75 79 4.0 8.0 0.00 0.00 0.00 85 1016.1
20260905182105 75 84 4.0 8.0 0.00 0.00 0.00 85 1016.2
20260905181605 75 88 4.0 8.0 0.00 0.00 0.00 85 1016.2
20260905181109 75 66 4.0 8.0 0.00 0.00 0.00 84 1016.1
20260905180609 75 74 3.0 8.0 0.00 0.00 0.00 85 1016.2
20260905180108 75 70 4.0 8.0 0.00 0.00 0.00 84 1016.3
20260905175608 76 76 4.0 8.0 0.00 0.00 0.00 84 1016.3
20260905175107 76 84 3.0 8.0 0.00 0.00 0.00 84 1016.3
20260905174609 76 85 4.0 8.0 0.00 0.00 0.00 85 1016.4
20260905174107 76 101 3.0 7.0 0.00 0.00 0.00 84 1016.4
20260905173917 76 80 2.0 7.0 0.00 0.00 0.00 86 1016.3
20260905173103 76 94 3.0 6.0 0.00 0.00 0.00 87 1016.4
20260905172603 75 75 3.0 6.0 0.00 0.00 0.00 86 1016.4
20260905172103 75 86 2.0 6.0 0.00 0.00 0.00 87 1016.4
20260905171602 75 87 3.0 7.0 0.00 0.00 0.00 87 1016.4
20260905171405 75 76 3.0 8.0 0.00 0.00 0.00 86 1016.4
20260905170603 75 77 3.0 8.0 0.00 0.00 0.00 87 1016.4
20260905170406 75 90 2.0 7.0 0.00 0.00 0.00 87 1016.5
20260905165602 75 94 3.0 7.0 0.00 0.00 0.00 87 1016.4
20260905165101 75 75 3.0 7.0 0.00 0.00 0.00 86 1016.4
20260905164909 75 71 2.0 7.0 0.00 0.00 0.00 88 1016.4
20260905164408 75 82 2.0 6.0 0.00 0.00 0.00 88 1016.4
20260905163602 74 92 2.0 6.0 0.00 0.00 0.00 88 1016.3
20260905163102 74 88 2.0 4.0 0.00 0.00 0.00 88 1016.4
20260905162602 74 89 2.0 4.0 0.00 0.00 0.00 88 1016.4
20260905162406 74 90 2.0 4.0 0.00 0.00 0.00 88 1016.4
20260905161601 75 74 2.0 4.0 0.00 0.00 0.00 88 1016.4
20260905161105 75 96 2.0 4.0 0.00 0.00 0.00 88 1016.4
20260905160603 75 45 1.0 3.0 0.00 0.00 0.00 89 1016.3
20260905160416 75 92 2.0 6.0 0.00 0.00 0.00 88 1016.2
20260905155602 75 92 2.0 6.0 0.00 0.00 0.00 88 1016.2
20260905155102 75 89 2.0 4.0 0.00 0.00 0.00 88 1016.2
20260905154602 75 74 1.0 4.0 0.00 0.00 0.00 88 1016.2
20260905154402 75 91 1.0 3.0 0.00 0.00 0.00 90 1016.2
20260905153605 75 91 1.0 4.0 0.00 0.00 0.00 90 1016.1
20260905153103 74 92 2.0 4.0 0.00 0.00 0.00 90 1016.1
20260905152602 74 63 2.0 4.0 0.00 0.00 0.00 90 1016.0
20260905152103 74 62 2.0 6.0 0.00 0.00 0.00 90 1015.9
20260905151602 74 97 2.0 6.0 0.00 0.00 0.00 90 1015.9
20260905151102 74 100 2.0 4.0 0.00 0.00 0.00 91 1015.9
20260905150602 74 84 1.0 4.0 0.00 0.00 0.00 90 1015.8
20260905145602 74 17 0.0 0.0 0.00 0.00 0.00 91 1015.8
20260905145103 74 17 0.0 2.0 0.00 0.00 0.00 92 1015.7
20260905144727 74 12 0.0 0.0 0.00 0.00 0.00 92 1015.7
20260905144657 74 17 0.0 2.0 0.00 0.00 0.00 92 1015.7
20260905143603 73 12 0.0 0.0 0.00 0.00 0.00 92 1015.6
20260905143104 73 11 0.0 0.0 0.00 0.00 0.00 92 1015.6
20260905142604 73 11 0.0 0.0 0.00 0.00 0.00 92 1015.7
20260905142102 73 5 0.0 0.0 0.00 0.00 0.00 92 1015.6
20260905141911 73 5 0.0 0.0 0.00 0.00 0.00 92 1015.5
20260905141102 73 5 0.0 0.0 0.00 0.00 0.00 92 1015.5
20260905140603 73 5 0.0 0.0 0.00 0.00 0.00 92 1015.5
20260905135906 73 5 0.0 0.0 0.00 0.00 0.00 93 1015.2
20260905135102 73 5 0.0 0.0 0.00 0.00 0.00 93 1015.2
20260905134604 73 5 0.0 0.0 0.00 0.00 0.00 93 1015.1
20260905134102 73 5 0.0 0.0 0.00 0.00 0.00 93 1015.1
20260905133602 73 5 0.0 0.0 0.00 0.00 0.00 93 1015.0
20260905133103 73 5 0.0 0.0 0.00 0.00 0.00 93 1014.9
20260905132602 73 5 0.0 0.0 0.00 0.00 0.00 93 1014.7
20260905132104 73 5 0.0 0.0 0.00 0.00 0.00 93 1014.6
20260905131604 73 5 0.0 0.0 0.00 0.00 0.00 93 1014.6
20260905131103 73 5 0.0 0.0 0.00 0.00 0.00 93 1014.6
20260905130602 73 5 0.0 0.0 0.00 0.00 0.00 93 1014.7
20260905125603 73 5 0.0 0.0 0.00 0.00 0.00 93 1014.7
20260905125409 72 5 0.0 0.0 0.00 0.00 0.00 93 1014.6
20260905124602 72 5 0.0 0.0 0.00 0.00 0.00 93 1014.7
20260905124104 72 5 0.0 0.0 0.00 0.00 0.00 93 1014.6
20260905123602 72 5 0.0 0.0 0.00 0.00 0.00 93 1014.6
20260905123104 72 5 0.0 0.0 0.00 0.00 0.00 93 1014.6
20260905122603 72 5 0.0 0.0 0.00 0.00 0.00 93 1014.5
20260905122102 72 5 0.0 0.0 0.00 0.00 0.00 93 1014.5
20260905121603 72 5 0.0 2.0 0.00 0.00 0.00 93 1014.5
20260905121102 72 5 1.0 3.0 0.00 0.00 0.00 93 1014.4
20260905120603 72 5 0.0 3.0 0.00 0.00 0.00 93 1014.4
20260905120103 72 5 0.0 0.0 0.00 0.00 0.00 93 1014.1
20260905115604 72 5 0.0 0.0 0.00 0.00 0.00 93 1014.1
20260905115104 72 5 0.0 0.0 0.00 0.00 0.00 93 1014.0
20260905114603 72 5 0.0 0.0 0.00 0.00 0.00 93 1014.0
20260905114104 72 5 0.0 0.0 0.00 0.00 0.00 93 1013.9
20260905113603 72 5 0.0 0.0 0.00 0.00 0.00 93 1013.9
20260905113412 72 5 0.0 0.0 0.00 0.00 0.00 93 1013.8
20260905112603 72 5 0.0 0.0 0.00 0.00 0.00 94 1013.8
20260905112103 72 5 0.0 0.0 0.00 0.00 0.00 94 1014.0
20260905111605 72 5 0.0 0.0 0.00 0.00 0.00 93 1013.7
20260905111105 72 5 0.0 0.0 0.00 0.00 0.00 94 1013.4
20260905110604 72 5 0.0 0.0 0.00 0.00 0.00 93 1013.2
20260905110104 72 5 0.0 0.0 0.00 0.00 0.00 93 1013.2
20260905105604 72 5 0.0 0.0 0.00 0.03 0.00 93 1013.3
20260905105104 72 5 0.0 0.0 0.00 0.03 0.00 94 1013.4
20260905104603 72 5 0.0 0.0 0.00 0.04 0.00 93 1013.2
20260905104103 72 5 0.0 0.0 0.00 0.05 0.00 93 1013.2
20260905103603 72 5 0.0 0.0 0.00 0.13 0.00 93 1013.3
20260905103523 72 5 0.0 0.0 0.00 0.13 0.00 93 1013.1
20260905103518 72 5 0.0 0.0 0.00 0.13 0.00 93 1013.1
20260905102103 72 5 0.0 0.0 0.00 0.13 0.00 93 1013.0
20260905101914 72 5 0.0 0.0 0.00 0.13 0.00 93 1013.0
20260905101103 72 5 0.0 0.0 0.00 0.13 0.00 93 1013.0
20260905100603 72 5 0.0 0.0 0.00 0.13 0.00 93 1013.0
20260905095603 72 5 0.0 0.0 0.00 0.13 0.00 92 1013.0
20260905095105 72 5 0.0 0.0 0.00 0.14 0.00 92 1013.1
20260905094603 72 5 1.0 3.0 0.00 0.14 0.00 92 1013.1
20260905094103 72 5 1.0 3.0 0.00 0.14 0.00 92 1013.2
20260905093916 72 5 1.0 3.0 0.00 0.14 0.00 92 1013.2
20260905093415 72 5 1.0 3.0 0.00 0.14 0.00 91 1013.2
20260905092603 72 5 2.0 3.0 0.00 0.14 0.00 91 1013.3
20260905092103 72 5 2.0 4.0 0.00 0.14 0.00 91 1013.2
20260905091604 72 5 2.0 4.0 0.00 0.14 0.00 91 1013.2
20260905091108 72 13 1.0 3.0 0.00 0.14 0.00 91 1013.2
20260905090606 72 80 0.0 0.0 0.00 0.14 0.00 91 1013.2
20260905090105 72 80 0.0 0.0 0.00 0.14 0.00 91 1013.2
20260905085604 71 80 0.0 0.0 0.00 0.14 0.00 91 1013.1
20260905085103 71 80 0.0 0.0 0.00 0.14 0.00 91 1013.1
20260905084604 71 80 0.0 0.0 0.00 0.14 0.00 91 1013.1
20260905084103 71 80 0.0 0.0 0.00 0.14 0.00 90 1013.1
20260905083604 71 80 0.0 0.0 0.00 0.14 0.00 90 1013.1
20260905083400 71 80 0.0 0.0 0.00 0.14 0.00 90 1013.1
20260905082606 71 80 0.0 0.0 0.00 0.14 0.00 90 1013.1
20260905082106 71 80 0.0 0.0 0.00 0.14 0.00 89 1013.1
20260905081603 71 80 0.0 0.0 0.00 0.14 0.00 89 1013.0
20260905081102 71 80 0.0 0.0 0.00 0.14 0.00 89 1012.9
20260905080603 71 80 0.0 0.0 0.00 0.14 0.00 89 1013.0
20260905075602 71 80 0.0 0.0 0.00 0.14 0.00 89 1013.0
20260905075103 72 80 0.0 0.0 0.00 0.14 0.00 90 1013.0
20260905074602 72 80 0.0 0.0 0.00 0.14 0.00 90 1013.1
20260905074103 72 80 0.0 0.0 0.00 0.14 0.00 91 1013.0
20260905073601 72 80 0.0 0.0 0.00 0.14 0.00 91 1012.9
20260905073054 72 80 0.0 0.0 0.00 0.14 0.00 91 1012.9
20260905072554 72 80 0.0 0.0 0.00 0.14 0.00 92 1012.9
20260905072349 72 80 0.0 0.0 0.00 0.14 0.00 91 1012.8
20260905071846 73 80 0.0 0.0 0.00 0.14 0.00 92 1012.8
20260905071050 73 80 0.0 0.0 0.00 0.14 0.00 92 1012.9
20260905070550 73 80 0.0 0.0 0.00 0.14 0.00 92 1012.8
20260905070050 73 80 0.0 0.0 0.00 0.14 0.00 92 1012.8
20260905065548 73 80 0.0 0.0 0.00 0.14 0.00 91 1012.8
20260905065046 73 80 0.0 0.0 0.00 0.14 0.00 91 1012.8
20260905064811 73 80 0.0 0.0 0.00 0.14 0.00 90 1012.8
20260905064042 73 80 0.0 0.0 0.00 0.14 0.00 90 1012.8
20260905063542 73 80 0.0 0.0 0.00 0.14 0.00 89 1012.8
20260905063042 73 80 0.0 0.0 0.00 0.14 0.00 89 1012.8
20260905062540 73 80 0.0 0.0 0.00 0.14 0.00 89 1012.8
20260905062340 73 80 0.0 0.0 0.00 0.14 0.00 89 1012.8
20260905061538 73 80 0.0 0.0 0.00 0.14 0.00 89 1012.9
20260905061036 74 80 0.0 0.0 0.00 0.14 0.00 89 1012.9
20260905060534 74 80 0.0 0.0 0.00 0.14 0.00 90 1012.9
20260905060032 74 80 0.0 0.0 0.00 0.14 0.00 90 1012.8
20260905055530 74 80 0.0 0.0 0.00 0.14 0.00 90 1012.6
20260905055029 74 80 1.0 3.0 0.00 0.14 0.00 91 1012.7
20260905054529 74 80 2.0 5.0 0.00 0.14 0.00 91 1012.7
20260905054029 74 80 2.0 5.0 0.00 0.14 0.00 92 1012.7
20260905053529 74 84 2.0 6.0 0.00 0.14 0.00 92 1012.6
20260905053029 74 84 2.0 6.0 0.00 0.14 0.00 92 1012.7
20260905052843 74 75 2.0 4.0 0.00 0.14 0.00 92 1012.5
20260905052029 74 87 2.0 7.0 0.00 0.14 0.00 92 1012.5
20260905051840 74 76 2.0 7.0 0.00 0.14 0.00 93 1012.4
20260905051030 73 96 2.0 5.0 0.00 0.14 0.00 92 1012.3
20260905050903 73 111 0.0 4.0 0.00 0.14 0.00 92 1012.5
20260905050030 74 127 0.0 0.0 0.00 0.14 0.00 92 1012.4
20260905045755 74 127 0.0 0.0 0.00 0.14 0.14 92 1012.4
20260905045700 74 127 0.0 0.0 0.00 0.14 0.14 92 1012.4
20260905044528 74 127 0.0 0.0 0.00 0.14 0.14 92 1012.5
20260905044029 74 127 0.0 2.0 0.00 0.14 0.14 92 1012.4
20260905043847 74 76 1.0 4.0 0.00 0.14 0.14 93 1012.3
20260905043032 74 76 2.0 4.0 0.00 0.14 0.14 92 1012.2
20260905042746 74 173 0.0 3.0 0.00 0.14 0.14 92 1012.1
20260905042646 74 101 2.0 4.0 0.00 0.14 0.14 93 1012.2
20260905041533 74 173 0.0 0.0 0.00 0.14 0.14 92 1012.0
20260905041031 74 173 0.0 0.0 0.00 0.14 0.14 91 1012.0
20260905040530 75 173 0.0 0.0 0.00 0.14 0.14 91 1011.9
20260905040415 75 173 0.0 0.0 0.00 0.14 0.14 92 1011.9
20260905035530 75 173 0.0 0.0 0.00 0.14 0.14 92 1011.8
20260905035031 75 173 0.0 0.0 0.00 0.14 0.14 92 1011.8
20260905034531 75 173 0.0 0.0 0.00 0.14 0.14 92 1011.9
20260905034032 75 173 0.0 0.0 0.00 0.14 0.14 91 1011.8
20260905033912 75 173 0.0 0.0 0.00 0.14 0.14 91 1011.7